Location: Home
(42.5358°N, 72.7383°W)
Time: 04:17:00
(UTC-04:00)

Explorer 11/Cluster Stage 4 - Pass Details

Date: 25 April 2025
Orbit: 463 x 1190 km, 28.8° (Epoch: 11 May)

Event Time Altitude Azimuth Distance (km) Brightness Sun altitude
Rises 05:17:12 0° 241° (WSW) 3,902 - -7.1°
Exits shadow 05:19:41 - 233° (SW) 3,140 9.0 -6.7°
Reaches altitude 10° 05:20:44 10° 228° (SW) 2,839 8.8 -6.5°
Maximum altitude 05:25:54 23° 180° (S) 1,895 8.3 -5.6°
Drops below altitude 10° 05:30:26 10° 130° (SE) 2,451 9.5 -4.9°
Sets 05:33:15 0° 116° (ESE) 3,248 10.4 -4.4°
